Location: Hac?musa Deresi
(39.1694°N, 32.2508°E)
Time: 15:17:30
(UTC+00:00)

HBTSS-SV1 - Pass Details

Date: 22 April 2026
Orbit: 583 x 599 km, 40.0° (Epoch: 10 May)

Event Time Altitude Azimuth Distance (km) Brightness Sun altitude
Rises 17:07:20 0° 253° (WSW) 2,819 8.8 -6.7°
Reaches altitude 10° 17:09:38 10° 252° (WSW) 1,916 7.9 -7.1°
Maximum altitude 17:14:04 80° 166° (SSE) 602 4.4 -7.9°
Drops below altitude 10° 17:18:28 10° 80° (E) 1,909 6.6 -8.7°
Enters shadow 17:19:09 - 80° (E) 2,174 6.9 -8.8°
